GFSMW_850_thetae_000.txt.gz
Theta_e
317 317 317 316 315 313 312 311 310 309 308 308 308 307 307 308 308 308 307 307 307 306 305 305 305 305 305 304 304 304 304 303 303 303 303 303 303 304 305 309 311 315 319
317 317 317 316 315 313 312 311 310 309 309 308 307 307 307 307 308 307 307 307 306 306 305 305 304 304 304 304 304 304 304 303 303 303 302 303 303 304 309 309 314 320 319
315 315 315 315 315 314 313 312 311 310 309 308 308 307 307 307 307 306 306 306 305 306 306 306 305 304 304 304 304 303 303 303 304 302 302 303 304 304 303 302 303 307 307
316 316 315 314 314 314 313 313 312 311 310 309 308 307 307 306 306 305 305 305 306 306 306 305 305 304 303 303 302 303 303 303 302 303 303 303 303 303 304 304 303 303 302
316 316 315 315 314 313 313 313 312 311 311 310 309 308 307 306 306 306 305 305 305 304 304 304 304 303 303 302 301 301 299 300 301 302 303 303 303 303 304 304 304 304 304
316 315 316 315 315 314 313 312 312 312 312 311 310 308 307 306 306 305 305 305 304 304 303 302 302 301 301 301 299 298 299 299 298 298 299 301 302 302 302 303 303 303 303
315 316 315 315 315 314 314 313 313 312 312 311 311 309 307 306 305 304 304 303 303 302 301 300 300 299 299 296 294 294 293 293 294 295 296 297 297 299 300 300 299 299 300
316 316 316 316 315 315 314 314 313 312 312 312 311 310 309 307 305 305 304 303 301 300 300 298 297 295 294 293 293 292 292 292 294 295 295 296 297 298 298 298 300 300 299
317 317 316 316 315 314 314 314 314 313 313 312 311 311 308 306 305 304 302 301 299 297 296 295 295 295 293 292 293 292 292 294 294 294 294 295 295 297 297 297 297 297 299
317 316 316 315 314 314 314 312 312 311 310 310 309 308 306 305 304 301 299 297 297 297 295 295 294 292 291 291 291 292 292 293 293 293 294 294 295 295 296 296 297 298 299
317 316 315 314 314 313 312 311 310 309 308 308 307 306 304 303 301 299 296 297 295 294 294 294 292 291 291 291 291 292 292 292 292 292 292 292 293 293 293 294 295 296 297
315 314 313 313 313 312 311 310 309 306 306 305 303 302 301 299 297 295 295 295 294 295 293 292 292 292 291 291 291 291 291 291 291 291 292 292 292 293 293 294 294 295 295
314 314 313 313 312 311 311 310 307 305 304 302 300 298 297 296 295 295 296 296 294 293 292 292 292 291 291 290 290 290 290 290 290 290 290 290 291 291 292 292 293 293 294
314 313 312 312 311 310 309 309 305 304 303 300 298 297 296 296 296 295 294 293 293 292 292 292 291 289 289 289 289 289 289 289 289 290 290 290 290 291 291 291 292 292 292
313 313 312 311 310 310 308 307 304 303 301 299 298 297 297 297 296 295 294 293 292 292 291 290 289 289 289 289 289 289 288 288 288 288 288 288 288 288 288 289 289 289 290
312 311 310 309 309 308 308 304 302 301 300 298 298 299 298 296 295 294 293 292 292 291 289 289 288 288 288 288 288 288 288 287 287 286 285 284 284 284 285 285 286 286 287
311 311 309 308 308 307 305 304 301 301 300 300 300 297 297 295 294 293 292 292 291 289 288 288 288 288 287 287 287 287 286 286 285 284 284 284 284 284 284 285 285 286 286
310 309 308 308 307 306 305 304 302 301 300 299 297 297 295 294 293 292 292 290 289 288 287 287 287 287 286 286 285 284 284 284 285 285 284 284 284 284 284 285 285 285 286
309 307 307 306 305 303 303 302 301 300 298 297 296 294 294 293 292 291 289 288 288 287 287 286 286 285 284 284 283 284 284 285 285 285 286 286 286 286 285 285 286 286 286
307 306 305 305 302 302 300 299 299 298 296 296 295 293 292 291 290 289 288 287 286 286 286 285 285 285 283 283 284 284 285 285 286 285 285 285 285 285 286 286 286 285 285
306 305 304 301 301 301 300 298 296 296 296 294 292 291 291 290 289 288 287 286 286 285 285 285 285 283 283 283 284 284 284 284 284 284 284 284 284 285 285 286 287 286 286
304 304 301 300 300 299 298 296 294 293 292 291 291 290 289 289 288 287 286 285 285 285 285 284 283 282 282 283 283 283 283 283 283 283 284 284 284 285 285 285 285 286 286
303 300 300 300 299 297 294 293 293 292 292 291 290 289 288 288 287 286 285 285 285 284 283 283 282 282 282 282 282 283 283 283 283 283 283 284 284 285 285 285 285 286 285
300 299 299 298 296 295 293 293 291 291 290 289 288 287 288 287 286 285 285 284 284 283 283 282 281 282 282 282 282 283 284 284 284 284 285 285 285 286 285 286 288 289 288
298 298 297 297 295 294 293 291 291 290 288 287 287 287 287 286 285 285 285 284 283 283 282 282 281 282 281 282 283 284 284 284 284 284 284 284 284 284 285 287 288 287 287
297 297 297 295 293 293 291 291 290 288 287 287 287 287 286 285 285 284 284 283 282 282 282 282 281 281 281 282 283 284 285 284 284 283 283 282 283 283 284 286 288 288 287

GFSMW_850_thetae_003.txt.gz
Theta_e
317 317 317 316 316 315 314 313 312 311 310 310 309 308 308 307 307 308 308 309 309 308 306 305 306 305 305 305 304 303 304 303 302 303 303 303 303 303 303 307 309 310 313
316 316 316 316 315 315 314 313 312 311 310 310 310 309 308 307 307 307 308 308 307 307 306 305 305 305 304 304 303 303 304 303 303 303 304 303 303 303 304 305 304 307 307
316 315 315 315 314 314 314 314 313 312 311 310 309 309 308 307 307 308 308 307 307 307 306 306 306 305 305 304 304 303 302 303 304 304 303 304 304 304 304 304 304 304 304
316 315 315 315 314 314 314 313 313 313 312 311 310 309 309 308 307 307 307 306 306 306 306 306 306 305 304 303 302 302 302 302 301 299 298 300 301 304 304 304 304 304 305
316 315 315 315 315 314 314 313 313 313 313 313 312 311 310 309 308 307 306 306 306 306 307 306 306 305 304 303 303 302 301 301 297 300 301 302 302 302 302 303 303 304 304
315 316 315 315 315 315 314 314 314 314 314 313 313 312 311 310 309 308 306 306 305 305 306 305 304 303 303 302 301 300 299 295 296 295 295 295 296 298 299 300 301 301 302
315 316 316 316 315 315 315 315 314 314 314 314 314 313 312 311 310 309 307 306 305 304 303 301 301 300 300 300 300 298 296 296 293 292 292 293 294 295 295 296 297 297 297
316 317 317 316 316 315 314 314 314 313 313 312 312 312 312 311 311 310 307 305 305 303 301 301 301 299 297 299 298 296 293 292 292 294 293 294 294 295 296 297 297 297 297
317 317 316 316 315 315 314 313 313 312 311 310 310 310 309 308 310 307 305 304 302 300 299 299 296 296 298 298 294 293 291 292 292 292 293 294 294 294 294 294 295 296 297
316 315 315 314 314 314 313 313 312 311 309 308 307 307 307 307 307 304 302 301 300 299 298 297 298 297 294 293 292 291 291 292 292 292 293 293 294 294 295 295 296 296 297
313 313 313 314 313 313 312 312 311 308 307 305 305 305 305 304 304 302 299 299 301 297 297 297 294 293 292 292 291 292 292 292 291 292 292 292 292 293 293 294 294 294 294
314 313 313 312 312 311 311 310 309 308 305 303 304 304 303 302 300 298 297 296 295 295 295 294 292 292 292 292 292 291 291 291 291 291 291 291 291 291 292 292 292 292 293
313 313 313 312 311 310 309 309 307 306 305 303 302 302 300 298 297 295 294 295 295 295 293 292 292 292 292 291 290 289 289 289 289 290 290 290 290 290 290 290 291 292 292
313 313 312 311 310 310 308 308 307 307 305 302 301 299 297 296 295 295 295 295 294 293 292 292 292 291 290 289 289 289 289 289 289 289 290 290 290 290 290 290 291 291 292
312 311 310 310 309 308 308 308 307 306 305 301 299 296 296 295 296 296 296 295 293 292 292 292 291 290 289 289 289 289 289 289 288 288 288 288 288 288 288 288 288 288 288
311 310 309 309 307 307 308 308 306 305 302 300 298 298 298 299 298 297 295 293 293 292 292 291 289 288 288 288 288 288 287 288 287 287 287 287 286 285 285 285 285 285 284
311 310 309 307 307 307 307 305 302 302 303 301 300 300 300 298 295 294 293 293 292 292 290 289 288 287 287 287 287 287 286 285 285 284 284 284 284 284 284 284 284 284 284
310 310 307 306 307 306 304 301 301 301 301 300 298 297 296 296 294 294 293 292 291 289 288 287 286 287 287 286 285 284 283 283 283 284 284 284 285 285 285 285 285 285 285
310 307 307 305 305 304 301 299 299 298 298 297 296 294 294 294 293 292 291 289 288 287 286 286 286 285 285 285 283 283 283 283 284 284 284 284 285 285 285 285 285 285 285
308 307 305 304 304 300 300 300 297 297 296 295 294 293 292 292 291 289 288 287 287 286 285 285 285 285 284 283 282 282 283 283 283 283 283 283 283 284 284 284 285 285 285
307 305 303 302 300 301 299 297 295 294 294 292 292 292 290 289 288 288 287 286 285 285 285 285 284 283 282 282 282 282 282 282 282 283 283 283 283 283 284 284 284 285 285
305 303 301 301 300 299 296 293 293 292 293 292 291 289 288 287 287 287 286 285 285 285 284 284 283 282 282 282 282 282 283 283 283 284 283 283 284 283 284 284 285 285 285
302 300 299 299 298 295 294 293 294 293 291 290 288 287 287 287 287 286 285 285 284 284 283 283 282 281 281 282 282 282 283 283 284 283 283 284 285 285 285 285 285 285 285
299 298 298 297 296 295 294 293 292 291 290 287 287 287 287 287 286 285 285 284 284 283 282 281 281 281 281 281 282 282 283 284 283 283 283 283 284 283 284 284 285 287 287
297 297 297 295 294 294 293 292 291 289 287 287 287 286 286 285 285 284 284 284 283 282 281 281 281 281 281 281 282 283 284 284 283 282 282 282 282 282 283 286 287 287 287
297 297 295 294 293 293 292 290 288 288 287 286 286 286 286 285 284 283 283 282 282 282 280 281 281 281 281 281 282 282 283 284 283 282 281 281 281 281 283 284 287 287 287

GFSMW_850_thetae_006.txt.gz
Theta_e
316 316 317 317 316 316 315 315 313 313 312 312 311 311 310 309 308 308 307 308 309 308 307 307 305 306 305 305 305 304 303 302 302 302 302 301 301 300 300 302 306 305 304
316 316 316 316 316 315 314 314 314 313 313 312 312 311 311 310 309 308 307 307 308 308 308 307 307 305 305 304 304 304 303 303 302 302 302 303 300 299 300 299 299 300 301
315 315 315 315 315 314 314 314 313 313 313 313 312 311 311 310 310 309 308 307 307 307 307 307 307 306 305 304 304 304 303 303 302 303 302 301 302 299 300 300 300 301 298
315 315 315 314 314 314 314 313 313 313 313 313 313 312 312 311 312 311 309 308 307 307 307 307 307 306 305 304 304 303 303 302 302 301 299 296 299 300 300 299 299 299 299
315 315 315 315 314 314 314 313 313 313 313 314 314 313 313 313 312 311 310 308 307 306 305 306 307 306 306 304 303 303 303 302 299 298 298 296 296 294 295 297 296 295 296
315 315 315 315 315 315 315 314 314 314 313 313 313 312 311 311 313 313 312 310 308 306 306 306 306 306 305 305 304 303 302 301 300 300 300 297 293 292 293 295 296 296 296
316 315 316 315 315 315 315 314 314 314 314 314 312 311 310 309 310 310 310 310 307 307 306 306 305 303 301 302 301 300 300 299 299 299 293 292 292 292 294 295 296 296 296
316 316 316 315 315 314 314 314 314 313 313 312 311 309 308 308 307 307 307 308 307 304 302 300 299 299 300 301 299 299 300 299 294 292 291 292 293 293 294 294 294 295 295
316 316 315 314 314 313 313 312 312 311 310 309 308 307 306 307 305 305 305 307 304 301 298 299 301 300 300 299 299 296 295 293 293 291 291 292 292 293 293 294 294 294 295
313 313 313 313 313 312 312 312 311 309 308 307 307 306 304 304 304 304 303 302 299 299 300 300 299 299 295 294 294 293 292 291 291 292 292 292 291 291 292 292 292 292 292
313 313 313 312 312 311 310 309 308 308 307 306 306 305 304 303 303 302 300 299 298 300 301 297 295 294 293 292 292 292 292 292 292 291 291 291 291 291 291 291 291 291 292
313 313 313 312 309 308 308 308 306 306 306 306 305 304 302 301 300 300 299 297 296 295 295 293 292 292 292 292 292 292 290 289 288 288 288 288 289 290 290 290 290 290 291
313 313 311 310 309 308 307 306 306 307 307 306 303 302 300 299 298 297 296 295 295 295 293 292 291 291 292 291 290 290 289 289 288 289 289 289 289 289 289 289 289 290 290
312 311 310 309 309 307 307 306 307 307 306 304 302 299 297 296 294 294 294 295 295 295 293 292 292 292 291 291 289 288 288 288 288 288 288 288 288 288 288 289 289 289 289
311 310 309 308 309 306 305 306 307 305 303 301 301 297 296 295 295 296 295 296 295 293 293 292 292 291 290 288 288 287 287 288 288 287 287 287 287 287 287 287 287 287 286
311 308 308 309 308 306 306 306 304 301 300 301 301 298 297 296 297 298 295 294 293 293 293 292 291 289 288 287 286 287 287 287 286 286 286 285 285 285 285 285 284 284 284
309 309 310 309 306 305 305 304 301 299 299 299 299 299 298 297 295 295 294 293 292 292 291 289 288 287 286 286 286 286 285 285 284 283 283 283 284 284 284 284 284 285 285
309 309 310 308 307 304 303 301 299 298 298 297 298 298 297 296 294 292 292 292 291 289 288 287 286 285 285 285 285 285 284 283 283 283 283 283 283 284 284 284 285 285 285
308 309 307 306 303 303 301 299 299 297 299 295 294 292 293 293 293 292 291 289 288 287 286 286 285 285 285 285 284 283 282 282 282 283 283 283 283 283 283 283 284 284 284
308 307 305 303 301 301 300 299 296 295 294 293 292 292 292 290 289 288 287 287 286 286 285 285 284 284 284 283 283 282 282 282 282 283 283 283 283 283 283 283 283 283 284
306 304 302 300 300 300 298 295 292 292 293 293 292 290 289 288 287 287 287 286 285 285 284 284 284 283 282 282 282 282 282 282 283 283 283 283 283 284 284 284 283 283 284
302 299 298 299 298 298 295 293 293 294 293 291 290 288 287 287 287 287 286 285 285 284 284 283 282 282 282 282 282 282 282 283 284 284 283 283 283 283 285 285 284 284 284
298 297 298 298 297 295 294 294 294 292 291 290 287 287 287 286 286 286 285 284 284 284 282 281 281 281 282 282 282 282 283 283 284 283 283 283 283 283 283 284 284 285 285
297 297 297 297 295 295 294 293 293 291 288 287 286 286 286 286 285 285 284 284 283 282 282 281 281 281 281 281 282 282 282 283 284 283 282 281 281 282 283 284 285 286 287
297 297 297 296 294 294 293 292 290 288 287 287 286 286 286 285 285 284 283 282 282 282 281 280 281 281 281 281 281 282 282 283 283 282 281 281 281 281 283 285 286 287 287
298 296 294 293 293 292 292 291 288 287 287 287 286 286 286 285 284 284 283 282 282 281 280 280 280 280 280 281 281 282 282 283 283 282 281 280 280 281 282 283 285 286 287

GFSMW_850_thetae_009.txt.gz
Theta_e
316 316 316 316 316 316 315 314 314 314 313 313 312 312 312 312 311 311 310 309 309 308 307 307 307 307 306 306 305 305 304 304 303 302 303 303 303 303 301 300 299 299 298
316 316 316 316 315 315 315 314 314 314 313 313 313 313 313 312 312 312 311 310 309 309 308 307 307 307 307 306 306 305 305 304 303 302 302 302 302 302 302 301 299 298 299
315 315 315 315 314 314 314 314 314 313 313 313 313 313 313 312 312 312 312 312 311 309 308 307 307 307 307 307 306 305 304 304 303 303 302 301 300 299 300 299 298 298 297
315 315 315 315 314 314 314 314 313 313 313 313 313 313 313 313 312 311 310 311 312 310 308 307 307 307 308 306 305 304 304 304 303 302 302 299 297 295 296 299 297 297 295
315 315 315 314 314 314 314 313 313 313 313 314 313 313 314 312 311 309 309 310 311 311 308 307 307 308 307 306 305 303 304 303 302 300 297 296 298 299 297 294 297 295 293
315 315 315 315 315 314 314 314 314 314 313 313 314 313 312 311 310 309 308 307 307 308 308 308 306 308 307 305 303 301 301 299 299 300 299 298 297 294 292 292 292 292 292
315 315 315 314 314 314 314 313 313 313 312 312 311 311 309 308 307 307 306 305 305 305 307 306 305 306 305 304 300 297 298 300 299 299 299 300 300 294 292 293 293 293 294
316 315 315 314 314 313 313 312 312 312 312 311 310 308 307 306 306 306 305 304 304 305 304 304 304 302 300 297 298 298 299 300 299 298 293 292 291 291 291 292 293 293 294
314 314 313 313 313 312 312 311 311 310 308 307 306 305 304 303 305 305 303 303 303 304 302 300 298 297 298 299 299 300 298 293 293 292 291 291 292 291 291 291 291 292 293
313 313 313 312 312 311 310 309 307 306 305 305 304 304 303 302 303 303 302 302 301 300 298 297 299 300 298 296 293 293 292 292 292 292 292 291 291 291 291 291 291 291 291
313 313 313 312 311 309 308 307 307 305 305 305 305 305 303 302 301 301 301 300 297 296 298 299 298 294 292 292 292 292 292 292 291 290 288 288 288 288 288 288 289 290 290
313 312 312 311 308 308 308 306 305 304 304 305 306 303 301 301 299 299 298 297 297 298 295 294 293 291 291 291 292 291 289 289 289 288 288 288 287 288 288 288 288 288 288
312 312 312 310 308 308 308 305 305 305 306 305 304 302 300 299 298 297 296 295 295 295 294 294 292 292 292 291 291 291 290 288 288 288 288 287 288 288 288 288 288 288 288
312 312 311 308 309 308 306 304 303 304 305 303 301 299 300 297 295 294 294 294 294 295 294 293 292 292 292 292 291 290 288 287 287 287 287 287 287 287 287 287 287 287 287
311 311 309 308 309 309 305 306 305 304 302 300 299 300 297 294 294 294 295 295 295 294 293 293 293 292 291 289 288 287 286 286 286 286 286 286 286 286 285 285 285 285 285
311 310 308 308 309 307 307 306 303 302 299 298 299 299 297 295 295 296 295 293 294 294 293 292 290 289 288 286 286 285 285 285 285 285 284 284 284 284 284 284 283 283 284
310 308 307 307 306 307 304 302 301 299 297 297 297 298 297 296 295 294 292 292 292 291 290 288 287 287 286 285 285 284 284 284 284 283 283 283 283 283 283 283 283 284 284
305 304 303 305 306 304 302 300 300 299 299 299 295 294 293 292 292 292 292 291 289 288 287 286 286 286 285 284 284 284 283 283 283 283 283 283 283 283 283 283 283 283 283
303 302 304 305 303 299 299 299 298 295 295 293 292 293 292 291 291 289 288 287 287 286 286 285 285 284 284 284 283 282 283 282 283 283 283 283 283 283 283 283 283 283 283
304 304 303 301 298 299 299 299 298 295 294 293 292 292 291 289 288 287 287 286 286 286 285 285 284 284 283 282 282 282 282 282 282 283 283 284 284 283 283 283 283 284 284
303 301 299 297 299 299 298 296 294 293 293 293 292 290 288 287 287 286 286 286 285 285 284 284 283 282 281 282 282 282 281 282 282 283 283 283 283 283 283 283 283 284 285
300 297 297 298 298 297 295 294 293 293 293 291 289 287 286 286 286 286 286 285 284 284 283 283 282 281 281 281 282 282 282 282 283 283 283 283 282 282 282 282 283 284 284
296 296 297 297 296 296 293 294 293 292 292 288 287 286 286 286 286 285 285 284 283 283 282 282 281 281 281 281 281 282 282 282 283 283 283 282 281 281 281 282 283 284 284
295 296 297 297 295 296 293 293 292 291 288 287 287 287 286 286 285 285 285 284 283 282 282 281 280 280 280 281 281 281 282 282 283 283 283 282 281 281 282 283 284 285 286
296 297 296 295 293 293 292 292 291 288 287 287 287 287 286 286 286 285 284 283 282 282 281 280 280 280 280 280 280 280 281 282 282 282 282 281 280 281 282 283 284 285 286
295 295 294 294 293 293 292 292 290 288 287 288 288 287 286 286 285 285 284 282 281 281 280 279 279 279 279 279 280 280 281 281 282 282 281 280 279 280 280 281 283 284 285

GFSMW_850_thetae_012.txt.gz
Theta_e
315 316 316 316 315 316 316 315 314 313 313 313 313 313 313 313 313 312 312 311 311 311 310 309 308 307 308 307 307 306 306 305 305 304 304 304 303 303 303 303 302 302 301
315 315 316 316 315 315 315 314 314 314 313 313 313 312 312 312 313 313 312 312 311 310 310 310 309 308 308 307 307 307 307 306 306 304 304 303 304 303 303 303 303 302 301
315 315 315 315 315 314 314 314 313 313 313 312 312 312 312 313 313 313 311 311 309 309 309 310 309 308 307 307 307 307 307 307 306 305 304 303 303 303 302 302 302 302 302
315 315 315 315 315 314 314 313 313 313 312 312 312 313 313 312 312 311 310 309 308 308 308 308 310 309 307 307 307 308 307 306 305 304 303 303 302 301 300 300 299 299 300
314 315 315 314 314 313 313 313 313 313 313 313 313 313 312 310 309 309 308 307 306 306 306 306 306 307 307 306 307 307 305 305 304 303 301 299 297 297 296 295 297 298 300
314 314 314 313 314 313 313 313 314 313 313 312 312 311 309 308 308 306 305 305 305 305 304 304 304 305 306 305 304 305 304 302 301 299 297 298 298 296 297 297 299 298 301
313 313 313 313 313 313 313 313 312 312 311 310 308 307 306 305 304 303 302 302 303 303 303 302 303 305 304 302 301 299 299 299 299 298 299 299 298 298 296 294 293 292 292
315 314 314 313 313 312 312 311 310 310 308 306 305 305 303 303 302 301 300 301 302 302 302 302 303 303 301 299 298 298 298 299 298 297 298 297 295 292 292 292 292 292 292
313 313 313 312 312 312 311 309 308 307 306 304 304 303 302 302 301 301 300 302 301 301 301 300 300 298 298 299 299 299 297 296 293 292 292 291 291 291 291 291 291 291 292
312 313 312 312 312 311 308 307 307 305 304 303 302 302 302 302 301 300 300 300 300 300 298 297 298 298 298 299 297 292 292 292 292 292 291 290 288 288 288 288 288 288 289
312 312 312 312 312 310 308 307 305 302 301 302 303 304 302 300 299 300 299 298 297 296 297 298 297 295 293 291 292 292 292 292 290 289 289 288 287 287 287 287 287 288 288
312 311 311 312 312 308 308 307 304 304 304 304 304 302 300 299 300 298 296 295 295 295 295 294 293 293 293 292 291 291 291 291 291 290 288 287 287 287 287 287 287 288 288
311 311 310 311 310 308 309 309 306 306 305 304 302 300 298 299 298 296 294 294 294 294 294 295 293 293 292 292 292 292 291 290 289 287 287 286 286 287 287 287 287 287 287
311 310 310 311 308 307 308 308 307 306 303 301 300 298 297 298 295 294 294 294 294 295 294 295 293 293 292 291 291 290 289 287 286 286 286 286 286 286 286 285 285 285 285
311 310 310 307 305 305 305 303 305 303 300 300 298 297 297 296 294 293 294 294 294 294 294 293 294 293 292 290 288 286 286 286 285 285 285 284 284 284 284 284 284 283 283
310 308 304 303 303 302 302 304 302 299 299 298 297 297 296 296 296 295 294 293 292 292 292 290 290 289 287 286 285 285 284 284 284 284 283 283 283 284 283 283 283 283 283
306 305 304 302 301 303 302 299 298 298 299 299 298 295 293 293 292 292 291 292 292 290 289 288 287 286 285 285 284 284 283 283 283 282 283 283 283 283 283 283 283 283 283
304 301 301 304 303 301 298 298 299 298 297 297 295 294 293 292 291 290 289 288 288 287 286 286 285 285 285 284 283 283 282 282 282 282 283 283 283 283 283 283 282 283 283
300 300 303 303 299 297 298 299 297 297 295 293 293 292 292 291 289 287 287 287 286 286 285 285 284 284 284 283 282 282 282 282 282 283 283 283 283 283 283 283 282 282 283
299 302 301 297 296 298 298 297 296 293 293 293 293 291 290 288 287 286 286 286 286 285 284 284 284 283 282 282 281 281 281 281 281 282 283 283 283 283 282 282 283 283 284
301 301 297 296 296 296 296 296 294 293 292 292 291 289 287 286 286 286 285 285 285 284 284 283 283 282 281 281 281 281 281 281 282 282 283 283 283 282 282 281 281 282 282
301 298 295 296 296 297 296 294 292 292 292 292 289 287 286 286 286 286 285 285 285 284 283 283 283 282 281 280 280 281 281 281 281 282 283 283 282 282 281 281 282 282 283
300 297 295 295 296 295 293 295 293 292 291 289 287 287 287 287 286 286 285 285 284 283 282 282 281 281 280 280 280 281 281 281 282 282 282 282 282 281 281 282 283 283 284
299 298 296 295 293 293 292 292 292 291 290 287 287 287 288 287 286 286 285 285 283 282 281 281 280 279 279 279 280 279 280 281 281 281 282 281 281 280 281 282 283 284 285
298 298 296 294 293 293 293 293 292 291 289 287 287 287 288 287 286 286 285 284 283 282 281 280 279 278 278 279 279 279 280 280 281 281 281 281 280 280 280 281 282 283 284
297 297 295 295 294 294 293 292 291 290 289 288 287 288 288 288 286 285 284 283 282 281 280 279 278 277 278 278 278 279 280 280 281 281 281 280 279 279 279 279 281 282 283

GFSMW_850_thetae_015.txt.gz
Theta_e
318 316 316 316 316 316 318 317 316 313 313 313 313 313 313 312 312 312 313 313 312 312 311 311 310 309 308 308 308 308 308 307 306 305 305 305 305 304 304 303 303 303 302
315 315 315 316 315 315 316 315 314 313 312 312 311 311 311 312 312 313 313 312 312 311 310 309 309 309 309 310 308 308 309 308 307 306 306 306 306 305 304 303 302 302 301
315 315 315 315 314 314 314 313 312 312 311 311 311 311 312 313 313 313 312 311 309 308 307 307 307 307 307 308 310 308 307 310 308 307 306 306 306 306 304 303 302 300 299
314 314 314 313 313 313 312 312 312 312 312 312 312 312 312 311 310 309 308 307 306 305 305 305 305 305 305 305 306 308 307 308 308 306 306 305 305 304 305 302 300 299 299
313 313 313 312 312 311 312 312 312 312 312 312 312 311 310 308 306 305 304 304 303 302 301 301 302 302 303 303 304 305 306 306 306 304 304 304 303 302 300 302 300 297 297
313 312 312 312 313 313 313 313 312 312 311 310 309 309 308 307 304 303 302 301 301 300 300 301 302 302 302 303 304 304 303 301 300 301 300 299 301 299 297 297 297 297 298
313 312 312 312 313 313 312 312 312 311 309 310 309 307 305 303 302 301 300 300 300 300 301 302 301 301 302 302 301 300 298 298 298 298 298 298 298 298 297 297 295 295 296
313 313 313 312 312 312 312 311 310 309 310 310 308 303 302 302 301 300 299 299 299 300 301 301 300 300 300 299 298 298 298 298 297 296 296 295 295 294 294 294 294 294 294
312 312 312 312 312 312 311 310 308 307 304 301 301 301 302 301 299 299 298 298 300 300 299 299 298 298 297 297 296 295 294 293 292 291 291 291 290 290 290 290 290 291 292
312 312 311 311 311 312 311 309 308 305 304 304 303 304 302 300 299 298 298 299 299 298 297 297 296 296 294 293 292 292 292 292 292 291 290 290 289 288 288 288 289 290 290
312 311 311 310 311 311 310 308 308 308 306 306 305 303 301 299 298 298 299 298 297 297 295 294 293 293 294 293 293 292 291 291 291 291 290 290 289 288 288 288 289 289 289
312 311 310 309 311 311 308 307 308 307 306 305 304 301 299 298 297 297 297 295 296 294 293 294 295 295 293 293 292 292 292 291 291 290 289 288 287 287 287 287 287 288 288
312 311 310 310 310 309 306 305 303 302 303 302 299 299 298 297 297 295 294 294 294 294 294 295 295 295 293 292 292 291 290 289 289 287 286 286 286 286 286 286 286 286 287
311 311 310 309 307 304 303 302 302 303 301 298 298 298 297 297 296 293 293 293 294 294 294 294 293 291 291 292 291 290 288 287 286 286 285 285 285 285 285 285 285 285 285
310 309 307 305 303 302 301 302 302 299 298 297 298 298 297 297 297 296 295 294 294 292 291 291 290 289 289 288 287 286 286 285 285 284 284 284 283 283 283 283 284 285 285
307 304 302 301 301 303 303 301 297 297 298 297 298 297 297 295 294 292 291 290 290 290 290 289 288 287 286 286 285 285 284 284 283 283 283 282 283 283 284 284 283 283 283
303 300 299 299 302 303 298 297 297 298 297 296 295 293 292 292 291 291 290 288 287 287 287 286 286 286 285 285 284 284 283 282 282 282 282 283 283 283 283 283 283 283 283
304 302 299 301 302 298 296 297 297 296 295 293 293 293 292 291 290 289 287 286 286 286 286 285 285 285 284 283 283 282 282 282 281 282 282 282 282 282 283 283 282 283 283
298 299 300 301 298 296 296 296 296 296 293 293 292 292 292 290 287 286 286 286 285 285 285 285 284 283 283 282 282 281 281 281 281 281 281 282 282 283 283 283 283 283 283
299 300 301 299 296 295 296 296 296 295 293 292 291 291 289 286 286 286 286 285 285 285 285 284 283 283 282 282 281 280 280 281 281 281 282 282 283 283 282 282 282 282 283
300 301 301 298 295 295 294 294 295 295 293 292 291 290 287 287 287 286 286 286 285 285 284 284 283 282 281 281 280 280 280 280 281 281 282 283 283 282 282 282 281 281 281
300 301 299 298 296 294 293 292 291 292 292 292 291 288 287 287 287 287 286 286 285 284 284 283 282 281 280 280 279 280 280 280 281 281 282 282 282 282 281 281 282 282 283
298 300 299 298 298 293 293 291 290 292 292 291 290 287 287 287 288 287 286 285 285 284 282 281 281 280 279 279 279 279 279 280 280 281 281 281 281 281 281 281 282 283 284
296 297 297 297 297 294 293 293 293 292 292 291 289 287 287 287 288 287 286 285 283 282 281 280 280 279 279 278 278 279 279 279 280 280 281 281 281 280 280 281 282 283 283
296 295 296 297 296 295 294 293 293 293 291 290 289 288 287 287 287 286 284 283 282 282 280 280 279 278 278 278 278 278 279 279 280 280 280 280 280 280 279 278 280 282 283
295 294 295 295 294 293 292 291 290 291 290 290 289 288 287 287 287 285 284 283 282 281 280 279 278 277 277 277 278 278 279 279 279 280 279 279 279 279 277 278 278 280 281

GFSMW_850_thetae_018.txt.gz
Theta_e
319 318 316 315 315 316 322 324 322 318 315 313 313 314 314 313 313 313 313 312 312 312 311 310 310 310 313 313 312 314 314 314 314 312 310 309 309 309 308 308 307 306 306
317 316 316 315 315 316 316 316 317 316 313 312 311 311 311 312 312 313 312 312 313 310 307 307 307 309 310 311 312 312 313 314 313 313 311 310 310 310 309 308 307 307 306
316 316 315 315 315 315 315 315 314 312 312 311 312 313 313 313 312 311 311 310 308 306 304 302 302 302 305 308 309 310 311 312 313 313 311 311 310 310 309 309 308 307 306
315 315 315 313 313 313 312 312 312 312 312 312 311 310 310 310 309 309 308 307 305 304 302 301 300 300 303 306 307 308 309 310 310 311 311 311 310 310 310 308 307 307 305
315 315 314 314 313 312 312 312 312 312 311 310 310 309 310 310 311 312 311 307 305 304 303 300 299 300 301 303 302 303 306 306 306 307 307 308 307 307 307 307 307 305 304
315 314 314 314 314 313 313 312 312 311 310 310 309 308 307 307 307 306 305 304 303 302 302 302 300 301 301 302 302 302 302 302 301 302 302 303 301 302 302 302 304 305 302
316 315 315 314 314 314 313 312 312 311 310 309 308 308 305 306 305 304 303 302 301 301 302 300 302 302 301 301 300 300 299 299 299 298 298 298 298 297 296 297 296 297 298
315 314 314 314 314 313 313 312 312 311 309 308 305 302 305 305 305 303 302 301 301 300 301 301 301 301 301 300 299 298 297 294 295 293 292 292 293 294 292 292 293 294 295
315 314 314 314 313 313 313 312 312 311 310 308 307 306 304 304 303 300 298 299 299 300 300 301 301 299 298 297 297 296 295 292 292 292 292 291 291 292 292 292 292 292 292
315 314 314 313 313 312 312 312 310 310 310 309 307 305 305 303 300 298 298 297 299 300 300 301 298 297 296 296 296 295 295 295 294 295 295 294 294 293 293 292 292 292 292
314 314 313 313 312 312 311 310 310 309 308 306 305 304 302 300 298 298 297 298 299 299 298 297 296 296 294 295 295 294 294 294 294 294 293 293 292 291 291 290 290 291 291
313 313 313 312 312 310 309 308 307 306 305 304 303 302 299 298 298 297 297 297 297 297 296 296 296 295 295 293 293 292 292 291 291 291 291 291 290 289 290 290 290 290 290
312 312 312 311 310 308 306 305 304 304 303 301 300 300 299 298 297 297 297 297 297 296 296 295 294 293 291 291 291 291 290 290 290 290 289 289 289 289 288 288 288 288 288
312 311 311 309 308 305 304 304 303 301 300 300 300 300 299 298 297 297 296 295 295 295 294 294 293 291 289 289 289 288 288 289 288 288 288 288 288 287 287 287 287 287 287
311 309 308 305 303 303 304 302 300 299 300 299 298 298 295 294 295 295 294 294 293 292 291 290 289 288 288 287 286 286 286 287 287 287 287 286 286 285 284 284 285 286 286
308 307 304 302 302 303 302 300 299 299 298 297 297 296 295 294 294 293 292 291 290 289 289 288 288 288 287 286 285 285 285 285 286 286 286 286 285 285 284 284 283 283 284
305 304 302 301 302 302 300 299 298 297 297 296 295 295 294 293 292 291 289 289 288 288 288 288 287 287 287 286 284 284 284 284 285 285 285 285 285 284 285 284 284 283 283
302 302 301 301 302 300 299 298 297 296 296 295 295 293 292 291 290 289 288 288 288 288 287 287 287 286 286 284 284 283 283 284 284 285 284 284 284 284 283 283 283 284 284
301 301 301 301 302 300 298 298 297 296 296 295 294 293 291 290 288 288 288 288 287 287 287 286 286 285 285 284 282 281 282 283 283 282 283 283 283 283 283 283 283 284 284
301 300 300 301 300 299 298 297 296 296 295 294 293 292 290 289 288 288 288 287 287 287 286 286 285 284 283 282 281 280 281 281 281 282 282 283 283 283 283 283 283 283 283
300 299 299 300 299 298 298 297 295 294 293 292 292 292 290 288 288 288 288 288 287 286 285 284 283 283 282 281 280 280 279 280 280 281 282 283 283 283 282 282 282 281 282
300 299 298 298 298 298 297 296 295 294 293 293 293 291 289 288 288 288 288 288 287 286 285 284 283 283 282 282 281 279 280 280 280 281 282 283 282 282 281 281 281 282 282
299 298 297 297 297 297 297 296 295 295 294 293 293 291 289 288 288 288 288 287 286 285 284 283 283 282 282 281 280 279 279 280 280 281 281 281 281 281 280 280 281 282 282
298 297 296 295 295 296 296 296 295 294 293 292 292 291 290 289 288 288 287 286 285 284 283 282 282 281 281 280 279 279 279 279 280 280 281 280 280 280 280 280 280 281 281
296 295 294 294 293 293 293 293 292 291 291 291 290 290 289 289 288 287 286 284 283 282 281 281 280 280 279 278 278 278 278 278 279 279 280 280 280 280 280 280 280 280 280
295 294 293 293 292 292 292 291 289 290 289 288 289 289 288 288 287 286 285 284 283 281 280 279 278 277 277 276 277 278 278 278 279 279 279 278 279 279 279 279 279 279 279

GFSMW_850_thetae_021.txt.gz
Theta_e
325 322 321 321 322 324 326 328 328 325 322 320 318 317 317 316 316 316 316 316 315 314 313 313 312 312 312 312 312 313 314 314 314 315 315 315 314 313 311 311 311 310 309
320 320 320 321 321 320 320 319 318 317 316 315 315 315 315 315 316 316 315 313 312 311 311 310 309 309 309 309 309 310 311 312 312 313 314 314 313 313 313 311 311 310 310
319 318 319 319 319 319 318 317 317 316 315 313 315 315 315 315 314 314 313 313 312 311 310 310 309 308 308 308 308 308 309 310 310 311 312 313 313 313 312 313 312 311 310
318 318 318 318 319 318 317 316 316 315 315 313 313 313 314 314 314 314 313 312 311 309 308 306 306 307 307 307 307 308 309 309 308 308 309 310 311 312 312 311 311 311 311
318 318 318 318 318 318 317 317 316 315 314 313 313 313 313 313 312 311 310 309 307 306 305 305 305 306 306 306 307 307 306 305 306 306 306 306 307 308 306 308 309 310 309
318 318 317 317 317 317 317 316 315 315 314 314 313 312 311 310 309 308 307 306 306 305 304 304 304 305 305 305 305 303 301 301 301 301 300 302 302 302 301 301 303 305 305
318 318 318 317 317 316 316 316 315 315 314 312 311 310 309 309 308 307 306 305 304 303 302 303 304 304 304 302 302 300 299 298 298 299 297 295 296 297 296 295 295 296 298
317 317 317 317 316 316 316 316 315 314 313 313 312 311 310 309 308 306 305 303 302 301 302 303 303 302 301 301 300 298 297 297 296 295 296 296 295 294 294 294 294 295 295
317 317 316 316 316 315 315 315 314 313 312 312 311 310 308 307 306 304 302 301 300 301 301 302 301 300 299 298 298 297 296 296 296 296 296 295 295 295 294 292 292 293 293
317 316 315 315 315 314 314 313 312 311 311 310 309 308 306 305 303 301 300 300 300 301 300 300 299 298 297 297 296 296 296 296 296 296 296 296 295 294 294 294 294 293 292
316 315 314 314 314 313 313 311 310 309 308 307 306 305 303 302 300 300 299 299 299 299 298 298 297 297 296 296 295 295 294 294 295 294 294 294 294 294 293 292 292 292 292
315 314 314 313 313 312 311 309 308 306 306 304 303 302 302 301 300 299 299 298 298 298 298 297 297 297 295 294 293 293 292 292 293 293 293 293 292 291 291 291 291 291 291
314 313 313 312 311 310 309 307 306 305 303 301 301 301 301 301 299 299 297 297 297 297 296 296 295 294 294 293 291 291 290 290 290 290 290 290 290 290 290 290 290 290 289
313 313 312 310 309 307 305 305 304 302 301 300 300 299 299 298 297 297 296 296 295 294 294 293 292 291 291 290 290 289 289 288 288 289 289 289 289 289 289 289 289 288 288
312 312 310 308 306 304 304 304 302 301 299 299 299 298 298 297 296 296 295 294 293 292 291 290 290 290 290 289 288 287 286 287 287 287 288 288 288 288 287 286 286 286 286
311 309 306 305 303 303 303 302 301 300 299 298 298 297 297 296 295 294 293 292 291 290 290 290 290 289 289 288 288 287 286 285 286 287 287 287 287 287 286 286 285 285 284
307 304 304 303 303 303 302 301 300 299 298 297 297 297 296 295 294 293 291 290 290 290 289 289 289 289 288 288 287 286 285 284 285 286 287 287 287 286 286 286 286 285 284
306 305 303 302 302 302 302 300 299 298 298 297 297 296 295 294 293 291 290 290 289 289 289 289 288 288 288 287 286 285 284 284 284 285 285 285 285 285 285 284 284 285 285
305 303 302 301 300 301 301 300 299 298 297 296 296 295 294 294 292 290 290 290 289 289 289 288 288 287 287 286 284 283 282 282 282 283 283 283 283 284 284 284 283 284 284
303 302 301 300 300 300 300 299 299 298 297 296 295 294 294 293 291 290 290 289 289 289 288 288 286 285 284 284 283 282 281 281 281 282 282 282 283 283 283 283 283 283 284
302 301 301 300 299 298 298 298 297 297 297 296 295 294 294 293 291 290 290 289 289 288 288 287 285 285 285 284 283 282 281 281 281 281 282 282 284 283 283 283 282 282 282
301 301 300 299 298 297 296 296 296 297 297 296 296 295 294 292 291 290 290 289 289 288 287 286 285 285 283 283 283 282 280 280 280 280 281 282 282 282 282 282 281 281 281
299 299 298 297 296 295 295 295 295 295 295 295 295 293 293 291 291 290 290 289 288 287 285 284 284 283 283 283 282 281 279 279 280 280 281 281 281 281 281 281 280 281 282
296 296 296 295 295 294 294 293 293 293 293 293 293 293 292 291 290 289 289 287 287 285 284 283 283 282 282 281 280 278 278 279 279 279 280 281 281 281 281 281 281 281 282
295 295 295 295 294 294 293 293 292 292 291 291 291 290 291 290 289 289 288 287 286 284 283 282 280 280 279 279 277 277 277 278 278 279 280 280 280 280 280 280 280 281 281
295 295 294 294 294 293 293 292 291 290 289 289 289 290 290 289 288 287 286 286 285 284 282 281 280 279 277 276 276 276 277 278 279 279 279 279 279 279 279 279 279 280 280

GFSMW_850_thetae_024.txt.gz
Theta_e
323 323 323 323 323 327 328 330 330 329 325 322 319 318 317 317 316 316 316 316 315 315 313 312 311 311 310 310 311 309 307 309 310 313 314 314 315 316 315 315 313 312 311
322 322 322 322 322 321 320 321 320 318 317 317 316 316 316 315 315 315 316 314 314 313 313 312 311 309 309 309 307 307 309 310 311 312 312 313 313 313 313 313 314 314 312
320 321 321 321 320 319 318 318 317 317 316 313 316 315 314 315 315 314 314 315 314 314 311 309 307 306 306 306 305 304 306 308 308 310 311 311 311 311 311 312 313 313 313
319 320 320 320 319 318 318 317 317 316 316 314 313 313 314 314 314 314 314 313 311 308 307 306 305 305 305 305 304 307 308 308 308 308 307 308 307 308 309 309 308 309 310
320 319 319 319 319 318 318 317 316 316 315 315 315 314 314 312 310 310 309 309 307 306 306 305 304 304 304 304 306 306 307 306 304 302 301 301 303 302 304 303 305 306 308
319 319 318 319 319 318 317 317 316 316 315 315 313 312 311 310 310 309 308 307 306 305 303 302 302 302 304 305 305 304 302 300 299 298 299 299 298 298 299 300 300 299 301
319 318 318 318 317 317 317 317 317 316 315 314 313 313 311 311 309 308 307 306 304 301 300 301 302 303 303 302 301 300 300 298 297 297 296 295 295 295 295 295 295 294 295
318 318 317 317 317 317 316 315 316 315 313 312 312 312 311 309 308 307 306 304 301 300 300 302 303 301 300 300 300 299 298 297 297 297 296 295 295 295 295 294 293 293 293
318 317 317 316 316 315 315 314 314 313 312 311 309 308 308 307 306 305 303 300 299 299 300 299 298 300 300 299 298 298 297 296 296 296 296 296 296 296 295 295 294 293 293
317 316 316 315 315 314 314 314 312 311 310 309 308 306 305 304 303 302 300 300 300 299 299 298 298 298 298 297 297 296 295 294 294 295 295 295 295 295 295 295 294 294 294
316 316 315 314 314 313 313 312 310 309 308 306 305 303 302 301 302 301 300 300 299 298 297 297 297 297 297 296 296 294 293 293 292 293 293 293 293 293 293 293 292 292 292
315 314 314 313 312 311 311 310 308 307 306 304 302 301 301 301 302 301 298 297 297 297 297 296 296 295 294 293 293 293 292 291 291 291 290 291 291 291 291 291 290 290 291
314 313 313 312 311 310 309 307 306 305 304 302 301 300 300 300 299 297 296 296 296 295 295 294 293 292 291 291 291 290 290 290 290 289 289 289 289 289 289 289 289 289 289
313 313 312 310 309 308 306 305 305 304 302 301 300 299 299 299 297 296 296 296 295 294 293 292 291 290 290 290 290 290 290 289 288 286 287 287 288 288 288 289 289 289 288
314 311 310 308 306 305 304 304 304 302 301 300 299 299 298 298 297 296 295 294 293 291 291 290 290 290 290 290 289 289 288 288 287 286 285 286 287 287 287 287 287 287 286
311 309 307 306 305 304 303 303 303 301 300 300 299 298 298 297 296 295 294 293 291 290 290 290 289 289 289 289 288 288 287 287 286 285 285 286 286 287 287 287 286 286 285
308 307 306 306 304 303 302 301 302 301 300 299 299 298 298 297 295 294 294 291 291 290 290 289 289 289 288 288 288 287 287 286 284 283 284 284 285 285 285 285 285 286 285
307 307 305 303 302 301 300 301 301 301 301 300 299 298 297 296 295 294 293 291 290 290 289 289 289 288 288 287 286 286 285 283 282 282 282 282 283 283 283 283 283 283 284
305 304 303 302 302 301 300 299 298 298 298 298 298 298 296 295 295 294 292 291 290 290 290 289 289 288 287 285 285 285 284 282 282 281 281 282 281 282 282 283 283 283 283
303 302 302 301 301 300 299 298 297 296 297 297 297 297 296 295 294 293 292 290 290 290 289 288 288 287 285 285 285 283 283 282 281 281 281 281 281 282 283 283 283 283 284
301 300 299 299 299 298 297 296 295 295 295 295 295 296 296 295 295 294 291 290 290 289 288 288 287 285 284 284 283 283 282 281 280 280 280 281 282 283 282 282 282 282 282
299 298 297 297 296 296 295 295 294 294 294 294 293 293 293 294 292 291 290 290 289 288 288 287 285 284 283 283 283 282 281 280 279 279 280 280 281 281 281 281 281 281 281
297 296 296 295 295 295 295 294 294 293 293 293 292 292 292 292 292 292 290 289 288 288 287 285 283 283 282 281 281 280 279 278 278 279 279 281 281 281 281 282 282 282 282
296 296 295 295 295 295 294 294 294 293 292 292 291 290 291 290 291 290 289 288 288 287 285 284 283 281 280 279 278 277 277 278 278 279 280 281 280 280 281 281 281 281 281
296 295 295 295 294 294 294 294 293 292 291 290 289 289 290 290 290 289 288 287 286 286 285 283 282 281 280 278 277 277 277 277 278 279 280 279 279 279 279 280 280 280 280
294 294 294 294 294 294 294 292 291 291 289 289 288 287 288 288 288 287 286 286 285 285 284 283 282 281 280 278 277 276 276 277 278 278 278 278 278 278 278 278 278 279 279

GFSMW_850_thetae_027.txt.gz
Theta_e
323 323 323 323 323 325 323 325 328 329 328 323 320 317 318 317 316 315 316 316 315 314 314 313 312 312 310 308 307 306 305 304 305 309 308 309 311 310 311 311 313 314 314
321 322 323 322 323 325 326 326 327 323 318 317 316 316 316 315 316 316 316 314 314 314 313 312 309 308 306 305 305 305 305 303 303 306 307 308 308 308 309 308 311 312 313
321 320 319 319 318 318 318 317 316 315 315 314 315 315 314 314 315 314 314 313 312 311 310 307 306 306 305 305 304 304 304 304 307 308 307 307 307 305 306 306 307 307 309
320 320 319 318 317 317 317 316 316 316 315 315 315 314 314 313 313 312 310 309 309 308 308 307 306 304 301 303 303 303 304 306 306 305 304 300 299 299 301 302 304 307 307
319 319 318 318 318 317 317 316 316 316 315 315 315 314 313 312 311 310 310 309 308 308 307 306 300 298 300 301 303 304 303 303 301 300 299 297 297 298 298 298 298 299 301
319 318 318 318 318 317 317 317 316 316 315 314 313 313 312 311 311 311 310 309 307 306 305 298 300 301 302 302 301 301 300 300 299 298 297 296 295 295 295 295 296 296 297
318 318 318 318 317 317 317 317 316 316 315 314 312 312 311 310 309 309 307 306 306 303 298 299 301 301 300 300 299 299 299 299 297 297 296 296 296 295 295 295 294 293 293
318 318 317 317 316 316 315 315 314 314 313 311 311 310 309 308 307 305 304 303 300 299 299 300 299 298 298 298 299 299 297 297 296 295 295 296 296 295 296 295 295 294 294
317 317 316 315 315 315 314 314 314 313 311 310 309 308 306 304 303 302 301 300 299 299 299 298 298 298 298 298 296 297 296 295 295 294 294 295 295 295 295 295 295 295 294
316 315 315 314 314 314 313 312 312 310 309 308 307 305 304 302 301 301 301 300 300 299 297 297 296 296 296 295 295 294 293 293 291 291 292 292 292 293 293 293 293 293 292
315 314 314 313 313 312 311 311 310 308 307 306 306 305 302 300 300 301 301 301 295 295 296 296 295 294 293 293 293 293 292 292 291 291 291 290 290 290 291 291 291 291 291
314 314 313 313 311 310 310 309 307 306 305 305 303 301 300 300 299 299 299 297 294 295 295 295 293 292 291 291 290 290 290 290 290 290 290 288 287 288 289 289 289 289 289
313 312 312 311 309 308 307 306 304 304 304 303 302 301 300 299 299 298 298 296 295 295 294 293 292 291 290 290 290 290 290 290 289 289 289 288 286 285 287 288 288 288 288
312 312 311 309 306 305 305 304 303 304 303 303 301 300 299 299 298 298 298 296 294 294 293 291 291 290 290 289 289 289 289 288 288 288 287 286 286 285 286 287 287 287 287
311 310 308 306 305 305 304 303 303 302 302 301 301 300 299 299 298 298 297 295 293 293 291 290 290 289 289 289 289 289 288 288 287 287 286 285 284 285 286 286 287 287 287
308 307 307 306 305 304 303 302 300 301 301 301 301 300 299 298 298 297 296 294 293 291 290 290 289 289 289 289 288 288 287 286 286 285 284 283 283 283 284 285 284 285 286
306 306 305 304 303 302 301 301 300 299 298 297 297 299 298 298 298 297 295 294 292 291 290 289 289 289 289 288 288 287 285 285 284 283 282 281 281 281 282 282 282 283 283
304 303 303 303 302 302 301 300 298 297 297 296 296 295 296 296 296 295 295 294 291 290 290 290 289 289 289 288 286 285 285 284 283 282 282 281 281 281 281 282 282 282 283
304 302 300 299 299 299 298 297 296 296 295 295 294 294 294 294 294 294 294 292 291 290 290 289 289 288 287 286 284 284 283 283 282 282 281 280 280 280 281 282 282 283 283
301 298 297 297 296 296 296 295 295 295 294 294 293 293 293 292 293 294 294 293 290 290 290 289 288 287 286 284 284 283 282 282 281 280 280 279 280 281 282 282 282 281 282
298 297 297 296 296 295 295 295 295 294 294 294 293 293 292 291 291 292 291 290 290 289 289 288 287 286 284 283 282 282 281 280 279 279 279 279 280 280 281 281 281 281 281
297 297 296 296 295 295 295 295 294 294 294 293 293 291 291 290 291 291 291 290 289 288 288 287 286 284 282 281 280 279 279 278 278 278 279 280 280 281 281 281 282 282 281
297 296 295 295 295 295 294 294 294 294 293 293 291 290 289 289 290 291 290 288 288 288 287 286 285 283 282 281 279 279 278 278 278 279 280 280 280 280 280 281 281 281 282
296 295 294 294 294 294 294 294 293 293 292 291 290 289 288 289 290 290 289 288 287 287 286 285 283 282 281 280 279 277 277 278 278 279 279 279 279 279 279 279 280 280 280
294 293 294 294 294 294 294 294 292 291 291 290 289 288 288 287 288 288 287 286 285 285 284 284 283 282 281 280 278 278 277 278 278 278 278 278 278 278 278 278 278 279 279
293 293 292 293 293 294 294 292 291 291 290 290 289 288 286 285 286 286 285 285 285 284 283 283 283 282 281 280 278 278 277 277 277 277 277 277 277 277 277 277 278 278 278

GFSMW_850_thetae_030.txt.gz
Theta_e
324 326 326 327 328 329 328 328 326 325 324 324 322 320 317 316 315 316 315 314 314 314 313 313 312 311 310 307 306 306 305 303 303 301 301 301 302 305 306 307 309 309 311
322 322 323 322 322 323 318 317 317 316 316 316 316 316 315 315 315 315 315 314 313 313 311 310 309 307 306 305 305 304 302 303 302 303 306 305 304 305 306 306 306 307 306
319 318 318 319 318 317 316 315 315 315 315 314 314 314 313 313 313 313 313 312 311 310 309 308 307 306 306 304 300 298 299 302 303 304 302 301 300 298 300 301 301 302 303
318 317 317 316 316 316 316 315 315 315 315 315 315 313 312 313 312 312 311 311 310 309 308 308 306 304 298 297 300 302 302 301 301 300 300 299 298 296 297 298 297 297 298
318 318 318 318 317 317 317 316 316 315 315 315 314 314 313 312 312 311 311 310 308 307 307 305 299 295 296 300 301 300 299 298 299 299 298 298 297 296 295 295 295 295 295
318 318 318 317 317 317 317 317 316 316 316 315 315 314 312 312 311 310 309 308 307 306 303 298 295 297 296 298 298 298 299 299 298 297 296 296 296 296 295 295 295 295 294
318 318 318 317 317 317 317 316 315 315 315 314 313 311 311 309 308 307 306 305 303 299 298 298 298 298 297 297 297 298 297 297 297 296 295 295 295 295 295 294 294 294 295
317 317 317 317 317 316 315 314 314 314 313 313 312 310 309 308 306 304 303 301 300 300 300 299 298 297 296 296 296 296 296 296 294 294 294 294 294 295 295 294 294 294 294
317 317 316 315 314 314 313 312 312 312 311 310 309 307 306 306 305 302 300 300 300 300 297 294 296 295 295 295 294 293 293 293 292 292 290 291 291 292 291 292 292 292 292
314 314 314 313 312 312 311 311 310 310 309 308 307 306 306 304 302 300 299 298 298 298 295 294 294 294 294 293 291 291 291 291 291 291 291 291 290 290 289 289 290 291 292
313 313 312 312 311 311 310 309 307 307 306 305 305 304 303 303 301 300 299 298 298 298 295 294 294 294 293 292 290 290 290 290 290 289 290 290 289 289 288 288 287 288 289
312 312 312 311 311 309 307 306 305 304 304 304 303 303 302 301 300 300 299 298 298 298 294 294 294 293 292 291 290 289 289 289 289 289 289 289 289 288 287 286 285 285 287
312 313 312 311 310 307 305 304 303 303 303 302 302 302 300 300 300 299 299 298 297 296 294 294 293 291 290 290 289 289 289 289 288 288 287 287 287 286 286 285 285 285 286
311 309 308 306 305 305 304 304 303 301 301 301 301 300 300 300 299 299 298 297 297 295 293 293 291 290 290 289 288 288 288 288 288 287 286 285 285 284 284 284 285 286 286
307 307 306 305 305 304 302 302 301 300 300 299 298 298 297 297 296 297 297 297 297 295 293 291 290 289 289 289 289 288 288 288 287 285 285 284 283 282 282 284 284 284 285
305 304 304 303 303 302 302 301 301 300 300 298 297 296 296 295 293 293 294 294 294 293 291 290 290 289 289 289 289 288 288 286 285 284 283 283 282 282 281 281 281 282 282
304 303 303 301 301 301 300 298 297 296 296 295 295 294 294 293 293 292 292 292 294 294 290 290 289 289 289 288 288 286 285 284 283 283 282 282 281 281 280 281 281 281 282
303 301 299 298 298 297 296 296 295 295 295 294 294 293 293 293 293 292 292 293 294 293 290 290 289 289 288 287 286 285 284 283 283 282 281 281 280 280 280 281 281 282 282
299 297 297 297 296 296 295 295 295 295 294 294 294 294 293 292 291 290 290 292 292 291 290 290 289 288 287 285 284 283 282 281 281 280 280 279 279 279 280 281 281 281 281
298 297 297 297 296 295 295 295 294 294 294 294 294 293 292 291 290 290 291 291 290 289 289 289 288 287 285 284 282 281 280 279 279 278 279 279 279 280 280 281 281 281 281
297 297 296 296 296 295 295 295 294 294 294 294 293 292 290 290 290 290 291 290 290 289 288 287 287 285 284 282 281 280 279 278 278 278 279 280 280 280 281 281 281 282 281
297 296 296 295 294 294 294 294 293 293 293 293 292 290 290 289 289 290 290 289 288 288 287 287 285 284 283 282 281 279 278 277 278 278 279 279 280 280 280 280 281 281 281
296 295 294 293 293 293 294 294 294 293 293 291 291 290 289 288 289 289 290 288 287 287 286 285 284 283 282 281 280 279 278 278 278 278 279 279 279 279 279 279 280 280 280
294 293 292 291 291 292 292 293 293 293 291 291 290 290 288 287 287 288 288 287 286 285 284 284 283 283 282 281 280 278 278 277 278 278 278 278 278 278 278 278 279 279 279
293 291 290 290 290 290 291 292 291 290 290 290 289 289 288 286 285 286 286 285 285 284 284 283 283 282 282 281 279 278 278 277 277 277 277 277 277 277 277 277 278 278 278
291 290 290 290 290 290 290 290 291 290 290 289 288 288 286 285 285 285 285 284 284 283 283 283 282 282 281 280 279 278 277 276 276 276 276 276 276 275 275 276 277 277 277

GFSMW_850_thetae_033.txt.gz
Theta_e
327 329 329 329 329 330 329 330 327 326 326 325 323 322 320 316 315 315 315 315 314 314 313 312 310 309 308 307 307 306 305 305 302 299 298 299 302 303 301 305 305 304 304
323 325 327 327 327 325 323 320 320 319 319 317 316 315 314 314 314 314 313 312 311 311 310 309 309 308 308 305 305 303 299 298 300 301 301 300 299 300 298 298 299 300 300
319 319 321 321 320 318 315 315 315 315 314 314 314 314 313 312 311 311 311 310 310 310 310 309 307 307 304 297 296 297 299 300 299 299 299 299 299 298 297 297 297 297 296
318 317 316 315 316 316 316 315 315 315 315 314 314 313 313 313 313 312 312 311 310 309 308 306 303 297 295 294 295 297 298 299 299 297 298 298 297 297 296 296 296 296 295
317 317 317 317 317 316 316 316 316 315 315 315 314 314 314 312 312 311 311 310 309 307 305 301 297 296 296 296 295 296 297 298 298 297 297 296 295 295 295 294 294 295 295
318 318 317 317 316 316 316 316 316 315 315 314 314 313 312 311 311 310 309 307 304 302 299 297 296 295 295 295 295 295 296 297 296 297 296 295 295 295 296 294 294 294 294
318 318 317 317 317 316 316 316 315 314 314 313 312 312 311 309 308 307 305 300 298 297 297 297 298 293 294 294 295 295 295 294 294 293 293 294 293 293 294 294 294 294 294
318 318 317 317 317 316 314 314 313 312 312 311 310 309 308 307 306 303 303 301 299 298 297 298 296 293 294 293 293 293 293 292 291 291 292 291 290 291 292 292 291 291 291
317 317 316 316 314 314 313 312 311 310 309 309 308 307 306 304 303 303 300 300 300 298 298 298 297 293 293 294 293 292 291 291 290 291 290 290 291 291 290 289 288 288 289
314 314 313 313 313 312 311 310 309 307 307 306 305 304 303 302 302 300 300 299 299 298 298 298 295 293 294 293 292 291 290 290 290 290 289 289 289 290 289 288 288 288 286
313 313 312 311 311 309 309 308 306 305 304 303 303 302 302 301 300 300 299 299 299 298 297 295 295 294 293 293 292 290 289 289 289 289 289 289 289 288 288 288 287 287 286
311 311 311 311 310 309 307 304 304 303 303 302 301 302 301 300 300 299 298 297 297 298 296 296 296 292 293 291 290 289 288 288 288 288 288 287 287 286 286 286 286 285 285
311 311 309 307 305 305 304 304 303 302 301 300 300 300 300 298 298 297 295 293 292 296 296 296 293 292 291 290 289 288 288 288 288 288 287 287 286 285 284 284 283 283 284
309 307 305 305 305 304 303 302 301 300 300 300 299 298 297 295 295 294 293 292 292 294 294 294 293 292 290 289 289 289 288 288 288 287 286 285 284 284 283 282 282 283 283
307 305 304 303 303 303 302 301 300 300 299 297 296 295 294 294 294 293 293 292 292 292 294 294 291 289 289 289 289 288 288 288 287 285 284 284 283 282 282 281 281 281 281
303 303 303 303 302 301 300 299 297 296 295 294 294 294 294 294 294 293 293 291 292 294 293 291 290 289 289 289 289 288 287 286 284 283 283 282 282 281 281 281 280 280 281
303 304 302 300 299 297 296 296 295 294 294 294 294 294 294 293 293 293 291 290 290 293 292 291 289 289 288 289 288 286 285 284 283 282 282 281 280 280 279 279 280 280 281
304 300 298 297 296 296 296 295 294 294 294 294 294 293 293 293 293 291 290 290 290 291 292 290 289 289 288 287 286 284 283 282 281 280 279 279 279 279 279 279 280 281 281
300 297 297 297 296 296 296 295 295 294 294 294 293 293 293 292 291 290 290 290 291 290 290 289 289 288 287 285 284 282 281 280 280 280 279 279 279 280 280 280 281 281 281
297 297 297 296 296 295 295 294 294 293 293 293 293 293 292 290 289 289 289 290 290 290 289 288 287 286 285 284 282 281 280 280 280 279 279 280 280 280 280 280 280 281 281
297 297 296 296 295 294 293 292 292 292 293 293 293 291 290 290 289 289 289 289 290 289 288 287 286 285 284 282 281 280 280 279 278 278 279 279 279 279 280 280 280 280 281
296 296 296 294 292 291 291 291 292 292 292 292 291 291 290 289 288 289 289 289 288 287 287 286 285 284 283 282 281 280 279 278 278 278 278 278 278 279 279 279 279 279 280
296 295 293 292 291 290 290 290 291 291 291 290 290 289 289 289 287 288 288 288 287 286 285 284 283 283 282 281 280 280 279 278 278 277 277 277 278 278 278 278 279 279 279
294 293 292 290 290 290 290 290 290 290 290 289 289 289 288 288 286 286 286 286 285 285 284 283 283 282 282 281 281 279 278 278 278 277 277 277 277 277 277 278 278 278 278
293 291 290 290 290 290 290 290 290 290 290 290 289 288 287 286 285 285 285 285 284 284 283 283 283 282 282 281 280 279 278 278 277 276 276 277 277 276 276 276 277 277 277
291 290 290 290 290 289 289 289 289 289 289 289 288 287 286 285 284 284 284 284 283 283 283 283 282 282 281 281 280 279 278 278 277 275 275 275 276 275 275 275 276 276 276